找回密碼
 註冊
作者 回覆/查看 最後發表
[四級] 【MetArt】May 10, 2025 - Arete - Teal Temptation【120P】 - [閱讀權限 30] maestro 2025-5-10 6111 yangtz 2025-5-12 11:24
[四級] 【Suicide Girls】May 09, 2025 - Allyblack - Let's Dance... Later【48P】 - [閱讀權限 30] maestro 2025-5-10 581 yangtz 2025-5-12 11:24
[四級] 【Suicide Girls】May 09, 2025 - Lilvixen - Vaquera del Norte【49P】 - [閱讀權限 30] maestro 2025-5-10 584 yangtz 2025-5-12 11:24
[四級] 【MetArt】May 11, 2025 - Mia Muse - Sassy Pink【113P】 - [閱讀權限 30] maestro 2025-5-11 288 yangtz 2025-5-12 11:23
[四級] 【Erotic Beauty】May 10, 2025 - Emi Mur - Hard Nipples【81P】 - [閱讀權限 30] maestro 2025-5-10 6108 yangtz 2025-5-12 11:22
[四級] 【DeNudeArt】May 09, 2025 - Marketa - Gorgeous blonde babe at the village resort【85P】 - [閱讀權限 30] maestro 2025-5-10 6102 yangtz 2025-5-12 11:22
[四級] 【MetArt】May 10, 2025 - Ali B - Presenting Ali B【101P】 - [閱讀權限 30] maestro 2025-5-10 6123 yangtz 2025-5-12 11:21
[四級] 【MetArt】May 10, 2025 - Bella - Daring Nature【117P】 - [閱讀權限 30] maestro 2025-5-10 7115 yangtz 2025-5-12 11:21
[四級] 【MetArtX】2025-5-10 - Pixie - Thai Teasing 1 - [閱讀權限 30] BB29 2025-5-10 13147 yangtz 2025-5-12 11:21
[四級] 【MetArt】May 10, 2025 - Marie Berger - Velvet Shimmer【100P】 - [閱讀權限 30] maestro 2025-5-10 11135 yangtz 2025-5-12 11:20
[四級] 【Girls Out West】May 11, 2025 - Bambi B - Boudoir【54P】 - [閱讀權限 30] maestro 2025-5-11 587 yangtz 2025-5-12 11:19
[四級] 【Playboy Plus】May 12, 2025 - pre - release Bunny Gaubert in Temporary Escape【37P】 - [閱讀權限 30] maestro 2025-5-11 596 yangtz 2025-5-12 11:19
[四級] 【MPL Studios】May 11, 2025 - Stefani - Cuddly【156P】 - [閱讀權限 30] maestro 2025-5-11 988 yangtz 2025-5-12 11:18
[四級] 【SexArt】May 11, 2025 - Yeri Blue & Britney Dutch - Femme Fatale【134P】 - [閱讀權限 30] maestro 2025-5-11 594 yangtz 2025-5-12 11:18
[四級] 【Suck Me VR】May 10, 2025 - Alice Lee - Alice Lee Plays With An XXL Dildo In VR【104P】 - [閱讀權限 30] maestro 2025-5-11 7102 yangtz 2025-5-12 11:17
[四級] 【Suicide Girls】May 10, 2025 - Awondrr - Roses are Red【46P】 - [閱讀權限 30] maestro 2025-5-11 590 yangtz 2025-5-12 11:16
[四級] 【Stunning18】2025-5-11 - Melanctha O. - Lifting Me Up - [閱讀權限 30] BB29 2025-5-11 8108 yangtz 2025-5-12 11:16
[四級] 【Stunning18】May 11, 2025 - Melpomene S - Seemly【91P】 - [閱讀權限 30] maestro 2025-5-11 785 yangtz 2025-5-12 10:39
[四級] 【PhotoDromm】May 10, 2025 - Virginia - Stop The Clock Beat【46P】 - [閱讀權限 30] maestro 2025-5-11 7111 yangtz 2025-5-12 10:38
[四級] 【MetArt】May 11, 2025 - Marion Rose - Presenting Marion Rose【124P】 - [閱讀權限 30] maestro 2025-5-11 1197 yangtz 2025-5-12 10:37
[四級] 【MetArt】Sep 05, 2025 - Carley - Presenting Carley【118P】 - [閱讀權限 30] maestro 2025-5-9 7126 piggie 2025-5-11 09:49
[四級] 【Suicide Girls】May 09, 2025 -Trilla - Deity 【48P】 - [閱讀權限 30] maestro 2025-5-10 487 howardwo 2025-5-11 03:03
[四級] 黑丝长腿人妻的诱惑[4P] - [閱讀權限 30]  ...2 福利王 2020-5-22 353061 quin 2025-5-10 17:24
[四級] 【Euro Nudes】Enes A - Series 06May 09, 2025 - aka Asandra Dewy【94P】 - [閱讀權限 30] maestro 2025-5-9 4106 waihung926 2025-5-10 16:23
[四級] 【Hegre Art】May 09, 2025 - Lola L Tub Tease【47P】 - [閱讀權限 30] maestro 2025-5-9 5113 waihung926 2025-5-10 16:22
[四級] 【Only Tarts】May 08, 2025 - Silvia Wise - Silvia Wise For OnlyTarts【95P】 - [閱讀權限 30] maestro 2025-5-9 5123 waihung926 2025-5-10 16:21
[四級] 【Nubiles】2025-5-08 - Nikki Hill - Cumming - [閱讀權限 30] BB29 2025-5-9 9124 waihung926 2025-5-10 16:20
[四級] 【Femjoy】May 09, 2025 - Luna Art - Purple【91P】 - [閱讀權限 30] maestro 2025-5-9 690 waihung926 2025-5-10 16:19
[四級] 【MetArt】May 09, 2025 - Toree - Ocean Breeze【130P】 - [閱讀權限 30] maestro 2025-5-9 7135 waihung926 2025-5-10 16:17
[四級] 【PhotoDromm】May 08, 2025 - Nastya - The Exotic Corner【46P】 - [閱讀權限 30] maestro 2025-5-9 9115 waihung926 2025-5-10 16:12
下一頁 »

快速發帖

還可輸入 120 個字符
您需要登錄後才可以發帖 登錄 | 註冊

本版積分規則

Archiver|聯絡我們|141華人社區

GMT+8, 2026-5-7 00:57

Powered by Discuz! X3.5

© 2001-2026 Discuz! Team.

返回頂部 返回版塊